Weather History for Frenchville, ME

Change the Weather History Date:

Monday, October 10, 2011

  Actual Average Record
Temperature  
Mean Temperature 55 °F 44 °F  
Max Temperature 66 °F 52 °F 71 °F (1997)
Min Temperature 43 °F 36 °F 28 °F (2003)
Degree Days  
Heating Degree Days 10    
Month to date heating degree days 167  
Since 1 July heating degree days 551  
Cooling Degree Days 0    
Month to date cooling degree days 3  
Year to date cooling degree days 87  
Growing Degree Days 6 (Base 50)    
Moisture  
Dew Point 38 °F    
Average Humidity 51    
Maximum Humidity 70    
Minimum Humidity 31    
Precipitation  
Precipitation 0.00 in 0.09 in 0.75 in (2012)
Month to date precipitation 0.89 0.88  
Year to date precipitation 35.50 26.46  
Sea Level Pressure  
Sea Level Pressure 30.04 in    
Wind  
Wind Speed 17 mph (NW)    
Max Wind Speed 30 mph    
Max Gust Speed 39 mph    
Visibility 10 miles    
Events      
T = Trace of Precipitation, MM = Missing Value Source: NWS Daily Summary

Daily Weather History Graph

Daily Weather History Graph

Search for Another Location

Airport:

Trip Planner

Search our weather history database for the weather conditions in past years. The results will help you decide how hot, cold, wet, or windy it might be!

Date:

Astronomy

Oct. 10, 2011 Rise Set
Actual Time 6:44 AM EDT 5:55 PM EDT
Civil Twilight 6:13 AM EDT 6:26 PM EDT
Nautical Twilight 5:38 AM EDT 7:01 PM EDT
Astronomical Twilight 5:02 AM EDT 7:37 PM EDT
Moon 4:57 PM EDT (10/10) 5:20 AM EDT (10/10)
Length of Visible Light 12h 12m
Length of Day
11h 11m
Waxing Gibbous, 98% of the Moon is Illuminated
Oct 10
Waxing Gibbous
Oct 11
Full
Oct 19
Last Quarter
Oct 26
New
Nov 2
First Quarter

Hourly Weather History & Observations

Time (EDT) Temp. Windchill Dew Point Humidity Pressure Visibility Wind Dir Wind Speed Gust Speed Precip Events Conditions
12:53 AM 63.0 °F - 53.1 °F 70% 29.97 in 9.0 mi West 11.5 mph - N/A   Clear
1:53 AM 63.0 °F - 53.1 °F 70% 29.96 in 9.0 mi West 15.0 mph - N/A   Scattered Clouds
2:53 AM 66.0 °F - 54.0 °F 65% 29.97 in 9.0 mi WNW 15.0 mph 24.2 mph N/A   Overcast
3:53 AM 64.9 °F - 51.1 °F 61% 29.97 in 10.0 mi WNW 18.4 mph 27.6 mph N/A   Overcast
4:53 AM 63.0 °F - 50.0 °F 63% 29.99 in 10.0 mi NNW 19.6 mph 28.8 mph N/A   Scattered Clouds
5:53 AM 59.0 °F - 42.1 °F 53% 30.01 in 10.0 mi NW 19.6 mph 27.6 mph N/A   Clear
6:53 AM 55.9 °F - 39.0 °F 53% 30.04 in 10.0 mi NW 18.4 mph 26.5 mph N/A   Clear
7:53 AM 54.0 °F - 36.0 °F 51% 30.05 in 10.0 mi NW 16.1 mph 25.3 mph N/A   Clear
8:53 AM 55.0 °F - 32.0 °F 42% 30.06 in 10.0 mi NW 13.8 mph 24.2 mph N/A   Clear
9:53 AM 57.0 °F - 30.9 °F 37% 30.04 in 10.0 mi NW 15.0 mph 23.0 mph N/A   Clear
10:53 AM 57.9 °F - 28.9 °F 33% 30.03 in 10.0 mi NW 19.6 mph 32.2 mph N/A   Clear
11:53 AM 60.1 °F - 30.0 °F 32% 30.01 in 10.0 mi NNW 18.4 mph 39.1 mph N/A   Clear
12:53 PM 61.0 °F - 30.0 °F 31% 30.01 in 10.0 mi NW 24.2 mph 33.4 mph N/A   Clear
1:53 PM 60.8 °F - 30.2 °F 31% 30.01 in 10.0 mi NW 27.6 mph 32.2 mph N/A   Clear
2:53 PM 61.0 °F - 32.0 °F 34% 30.01 in 10.0 mi NNW 21.9 mph 31.1 mph N/A   Clear
3:53 PM 60.1 °F - 33.1 °F 36% 30.02 in 10.0 mi NNW 15.0 mph 25.3 mph N/A   Clear
4:53 PM 57.0 °F - 34.0 °F 42% 30.04 in 10.0 mi NW 19.6 mph 28.8 mph N/A   Clear
5:53 PM 54.0 °F - 35.1 °F 49% 30.07 in 10.0 mi NW 16.1 mph 20.7 mph N/A   Clear
6:53 PM 52.0 °F - 36.0 °F 54% 30.09 in 10.0 mi NW 11.5 mph - N/A   Clear
7:53 PM 50.0 °F - 35.6 °F 58% 30.10 in 10.0 mi NW 11.5 mph - N/A   Clear
8:53 PM 50.0 °F - 36.0 °F 59% 30.12 in 10.0 mi NW 12.7 mph - N/A   Clear
9:53 PM 48.9 °F - 36.0 °F 61% 30.12 in 10.0 mi NW 16.1 mph - N/A   Clear
10:53 PM 46.9 °F - 35.1 °F 63% 30.13 in 10.0 mi NNW 10.4 mph - N/A   Clear
11:53 PM 45.0 °F 40.1 °F 35.1 °F 68% 30.16 in 10.0 mi NNW 9.2 mph - N/A   Clear